Orbital Elements at Epoch 2459000.5 (2020-May-31.0) TDB
Reference: JPL 23 (heliocentric ecliptic J2000)
Element | Value | Uncertainty (1-sigma) | Units |
e | .1520361860584431 | 5.1625e-08 | |
a | 2.7756985043854 | 2.4291e-08 | au |
q | 2.353691890130519 | 1.4119e-07 | au |
i | 35.68748357615208 | 6.0829e-06 | deg |
node | 134.0492227895295 | 7.743e-06 | deg |
peri | 194.0251813514988 | 1.7693e-05 | deg |
M | 130.957543675827 | 1.5363e-05 | deg |
tp | 2458386.052355380519 (2018-Sep-24.55235538) | 7.2938e-05 | TDB |
period | 1689.10584189465 4.62 | 2.2173e-05 6.071e-08 | d yr |
n | .2131305162003302 | 2.7977e-09 | deg/d |
Q | 3.197705118640282 | 2.7984e-08 | au |
|
| | Orbit Determination Parameters
Additional Information
|